Regional Weather Roundup
Issued by NWS

Home | Current Version | Previous Version | Text Only | Print | Product List | Glossary On
Versions: 1 2 3 4 5 6 7 8 9 10 11 12 13 14 15 16 17 18 19 20 21 22 23 24 25 26 27 28 29 30 31 32 33 34 35 36 37 38 39 40 41 42 43 44 45 46 47 48 49 50
000
ASUS43 KLSX 262010
RWRMO

WEATHER SUMMARY FOR MISSOURI
NATIONAL WEATHER SERVICE SPRINGFIELD MO
200 PM CST SUN FEB 26 2017

NOTE: "FAIR" INDICATES FEW OR NO CLOUDS BELOW 12,000 FEET WITH NO
       SIGNIFICANT WEATHER AND/OR OBSTRUCTIONS TO VISIBILITY.
       CURRENT SKY AND/OR WEATHER CONDITIONS ARE NOT AVAILABLE FOR
       CHILLICOTHE AND FARMINGTON.

MOZ001>031-035>038-043-044-053-054-262100-
...NORTHERN AND WESTERN MISSOURI...

CITY           SKY/WX    TMP DP  RH WIND       PRES   REMARKS
KANSAS CTY INT MOSUNNY   51  25  36 VRB6      29.95F
KANSAS C DTWN  MOSUNNY   52  25  35 S10       29.96F
LEE`S SUMMIT   CLOUDY    49  25  39 S9G20     29.98F
ST JOSEPH      PTSUNNY   52  27  38 S12G20    29.94F
CHILLICOTHE      N/A     50  30  46 SW8G18    29.97F
KIRKSVILLE     CLOUDY    49  31  49 SW15G28   29.97F

$$
MOZ066>068-077>081-088>096-101>105-262100-
...SOUTHWEST MISSOURI...

CITY           SKY/WX    TMP DP  RH WIND       PRES   REMARKS
SPRINGFIELD    CLOUDY    37  34  89 SE9       30.01F
JOPLIN         CLOUDY    42  38  85 E12       29.98F
BRANSON        CLOUDY    46  25  42 E9        30.01F

$$
MOZ032>034-039>042-045>050-055>058-069>072-262100-
...CENTRAL MISSOURI...

CITY           SKY/WX    TMP DP  RH WIND       PRES   REMARKS
COLUMBIA       CLOUDY    47  19  33 S12       30.03F
JEFFERSON CITY CLOUDY    48  20  32 SW12      30.04F
ROLLA          CLOUDY    43  29  57 SW18G24   30.04F
SEDALIA        CLOUDY    48  20  32 S12       30.02F
WHITEMAN AFB   CLOUDY    47  21  34 SW16      29.99F
WARRENSBURG    CLOUDY    46  23  39 S10G16    30.00F
OSAGE BEACH    LGT RAIN  41  36  82 SW12      30.07R

$$
MOZ051-052-059>065-262100-
...EAST CENTRAL MISSOURI...

CITY           SKY/WX    TMP DP  RH WIND       PRES   REMARKS
ST LOUIS INTL  NOT AVBL
SPIRIT OF STL  CLOUDY    48  17  29 S9        30.07F
ST CHARLES     CLOUDY    46  15  28 S10       30.08F

$$
MOZ072>076-082>087-097>100-106>115-262100-
...SOUTH CENTRAL AND SOUTHEAST MISSOURI...

CITY           SKY/WX    TMP DP  RH WIND       PRES   REMARKS
CAPE GIRARDEAU CLOUDY    50  21  32 S10       30.13F
FARMINGTON     CLOUDY    46  23  40 SW14G21   30.10F
POPLAR BLUFF   PTSUNNY   51  25  36 SE10      30.11F
WEST PLAINS    CLOUDY    48  21  34 S9        30.07F

$$



USA.gov is the U.S. government's official web portal to all federal, state and local government web resources and services.